Tracking 27428 objects as of 31-May-2023
HD Live streaming from Space Station
objects crossing your sky now

NAVSTAR 79 (USA 304)

Track NAVSTAR 79 (USA 304) now!
NAVSTAR 79 (USA 304) is classified as:


NORAD ID: 45854
Int'l Code: 2020-041A
Perigee: 20,104.0 km
Apogee: 20,274.3 km
Inclination: 55.8 °
Period: 718.0 minutes
Semi major axis: 26560 km
RCS: Unknown
Launch date: June 30, 2020
Source: United States (US)
Launch site: AIR FORCE EASTERN TEST RANGE (AFETR)
PRN: 23
Your satellite tracking list
Your tracking list is empty




NASA's NSSDC Master Catalog

Two Line Element Set (TLE):
1 45854U 20041A   23150.65325308 -.00000045  00000-0  00000-0 0  9996
2 45854  55.8014  72.5457 0032065 186.7686 352.2136  2.00565666 21707
Source of the keplerian elements: AFSPC